Temp
88 89 83 83 84 84 84 83 83 83 83 83 83 84 84 84 84 84 84 84 84 83 84 84 85 85 84 84 84 84 84 84 84 84 84 83 83 83 83 84 86 92 83
92 91 82 82 83 84 84 84 83 83 83 83 84 84 83 84 84 84 84 84 85 85 84 84 84 84 84 84 84 84 84 84 84 84 84 84 83 83 84 83 84 87 83
92 91 88 82 84 83 83 83 83 83 83 83 84 83 84 83 84 84 84 84 84 85 85 84 84 84 84 84 84 83 83 83 83 84 87 96 91 83 83 83 83 83 82
91 92 91 82 83 83 83 82 83 84 84 83 83 83 83 83 84 84 84 84 84 85 84 85 84 84 84 84 83 83 83 83 84 86 95 96 94 83 83 83 83 83 82
92 94 89 82 83 83 83 83 83 83 83 83 83 83 84 84 84 84 84 84 84 85 84 85 85 84 84 84 83 83 82 83 85 91 91 91 90 86 83 83 85 83 81
93 92 85 83 83 83 83 82 83 83 84 83 84 83 84 84 84 84 84 84 84 84 84 85 84 84 83 82 83 82 82 82 87 95 93 91 91 82 82 83 82 82 81
93 93 89 83 83 83 83 83 83 83 83 83 84 84 84 84 84 84 83 84 84 84 84 84 84 84 84 83 82 82 82 84 94 93 93 92 89 82 82 82 82 82 82
94 93 90 83 83 82 83 83 83 83 83 83 83 84 83 83 83 84 84 84 84 84 84 84 84 84 84 83 83 82 82 85 94 93 94 92 82 82 82 82 82 82 82
95 93 92 91 86 83 83 83 83 83 83 83 84 83 84 84 84 84 84 84 84 84 84 84 84 84 84 84 83 82 82 84 96 95 96 93 81 82 82 82 82 81 81
93 93 92 91 92 91 91 83 83 82 84 84 84 84 84 84 84 84 83 83 84 84 84 84 84 83 83 83 83 83 82 84 98 96 94 89 82 82 82 82 81 81 80
91 93 93 93 90 91 91 88 84 83 84 84 84 84 84 93 92 89 85 84 84 84 84 84 84 83 83 83 83 82 84 96 98 98 95 81 81 82 81 81 80 80 80
90 92 95 94 92 92 95 90 89 89 88 84 89 89 93 92 91 91 88 84 84 84 84 84 83 83 84 98 95 87 98 98 97 97 91 81 82 82 81 81 80 80 80
91 92 93 94 92 95 93 94 94 94 91 89 88 87 88 90 89 90 90 91 90 86 94 91 90 97 94 98 97 97 97 98 99 98 87 81 81 82 81 80 80 80 80
91 92 94 93 91 92 93 94 94 93 93 94 92 88 86 89 90 90 89 91 91 95 92 93 96 94 95 94 95 97 98 98 98 99 88 82 81 81 81 81 80 80 80
89 91 92 90 88 89 88 92 91 94 95 93 92 90 94 92 89 92 91 93 93 94 94 93 93 94 93 95 97 95 98 97 98 98 97 82 81 81 81 81 81 80 80
91 90 92 89 88 89 89 88 91 94 93 95 94 92 90 93 89 90 91 93 93 94 95 94 93 94 97 99 97 96 96 100 97 96 100 93 81 81 81 81 81 80 80
92 92 90 90 90 88 88 89 92 94 96 94 94 90 89 91 89 90 93 94 94 93 91 91 91 95 98 101 95 99 99 97 99 96 98 99 91 80 81 81 81 80 80
92 90 91 94 91 90 89 90 94 94 96 95 95 93 90 90 90 91 93 94 94 94 95 96 96 97 98 99 96 98 99 99 97 96 97 97 100 100 83 81 81 80 80
92 89 89 90 91 90 89 92 93 91 95 96 96 96 90 92 92 94 96 94 91 96 97 97 97 95 94 97 98 99 99 98 98 101 95 94 95 96 98 81 80 80 80
92 90 89 90 90 89 91 90 94 95 95 96 96 97 93 94 91 93 95 92 94 96 96 97 92 96 95 96 98 100 98 99 100 98 97 99 99 96 97 94 94 93 80
92 90 89 88 87 89 90 89 91 93 94 95 97 93 92 94 93 91 96 93 94 95 94 91 92 90 96 97 93 98 99 99 99 101 103 100 98 98 97 95 94 96 94
91 90 88 88 87 89 91 91 92 95 96 97 97 94 94 94 92 93 93 93 93 95 91 90 89 95 96 96 92 92 92 95 100 101 100 99 98 99 98 97 94 92 92
91 89 89 88 88 89 91 91 90 93 94 93 93 95 94 93 93 93 92 94 91 93 95 91 91 89 94 95 90 90 89 88 92 98 97 98 93 96 97 97 95 93 91
92 92 91 89 88 89 89 90 89 90 91 94 94 96 95 94 94 94 92 92 90 95 93 92 93 90 88 92 94 95 89 88 87 89 100 98 98 96 93 96 96 94 91
93 93 92 89 88 89 88 90 90 90 94 95 96 91 91 92 93 95 93 92 90 93 90 90 89 87 93 91 94 94 89 93 90 88 89 93 98 99 98 98 96 96 95
94 94 92 88 86 87 87 88 88 89 91 93 92 92 94 96 95 92 93 91 90 91 89 90 88 87 87 89 92 91 92 91 92 90 89 90 89 96 98 99 98 96 97
MSLP
1014.45 1014.82 1015.75 1015.90 1016.15 1016.22 1016.28 1016.41 1016.57 1016.69 1016.73 1016.82 1016.92 1017.02 1017.06 1017.12 1017.15 1017.09 1017.13 1017.21 1017.31 1017.31 1017.37 1017.46 1017.43 1017.62 1017.66 1017.63 1017.76 1017.83 1017.89 1018.04 1018.08 1018.21 1018.29 1018.35 1018.51 1018.52 1018.53 1018.36 1018.04 1018.17 1018.87
1014.06 1014.86 1015.95 1016.15 1016.15 1016.40 1016.48 1016.60 1016.80 1016.93 1017.02 1017.08 1017.17 1017.32 1017.46 1017.39 1017.33 1017.44 1017.49 1017.63 1017.73 1017.78 1017.93 1017.96 1017.95 1018.03 1018.07 1018.21 1018.40 1018.31 1018.31 1018.28 1018.32 1018.44 1018.39 1018.57 1018.76 1018.85 1018.81 1018.92 1018.77 1019.00 1019.25
1014.22 1015.13 1015.84 1016.29 1016.34 1016.57 1016.71 1016.81 1016.90 1017.10 1017.25 1017.39 1017.45 1017.65 1017.66 1017.44 1017.62 1017.71 1017.85 1017.92 1018.04 1018.11 1018.31 1018.43 1018.49 1018.57 1018.60 1018.63 1018.67 1018.77 1018.75 1018.81 1018.89 1018.65 1018.19 1017.85 1018.80 1019.34 1019.32 1019.23 1019.41 1019.44 1019.47
1014.43 1014.85 1015.48 1016.43 1016.53 1016.70 1016.92 1017.10 1017.21 1017.31 1017.47 1017.72 1017.71 1017.79 1017.83 1018.05 1017.97 1017.96 1018.06 1018.18 1018.33 1018.45 1018.65 1018.74 1018.79 1018.88 1018.99 1019.06 1019.11 1019.13 1019.14 1019.25 1019.15 1018.59 1017.77 1017.98 1018.69 1019.68 1019.65 1019.61 1019.61 1019.65 1019.66
1014.60 1014.92 1016.01 1016.63 1016.72 1016.82 1016.95 1017.21 1017.42 1017.53 1017.69 1018.03 1017.99 1018.19 1018.14 1018.18 1018.17 1018.26 1018.36 1018.50 1018.66 1018.79 1018.95 1018.96 1019.15 1019.23 1019.37 1019.42 1019.47 1019.46 1019.52 1019.47 1019.07 1018.29 1018.79 1018.61 1018.72 1019.89 1019.83 1019.68 1019.56 1019.77 1019.85
1014.66 1015.15 1016.46 1016.64 1016.90 1017.09 1017.33 1017.58 1017.67 1017.74 1017.88 1018.15 1018.29 1018.33 1018.33 1018.43 1018.46 1018.60 1018.73 1018.77 1018.95 1019.05 1019.19 1019.27 1019.46 1019.59 1019.77 1019.70 1019.81 1019.81 1019.79 1019.57 1018.98 1018.61 1018.55 1019.20 1019.43 1020.21 1020.13 1020.13 1020.22 1020.24 1020.21
1014.81 1015.36 1016.30 1016.93 1017.07 1017.41 1017.60 1017.75 1017.85 1018.02 1018.23 1018.35 1018.42 1018.55 1018.66 1018.78 1018.87 1018.95 1019.03 1019.07 1019.15 1019.31 1019.43 1019.57 1019.66 1019.76 1019.83 1020.03 1020.11 1020.12 1020.00 1019.72 1018.93 1019.07 1019.05 1019.25 1020.14 1020.45 1020.42 1020.45 1020.45 1020.43 1020.39
1014.74 1015.30 1016.28 1017.23 1017.43 1017.68 1017.80 1017.98 1018.10 1018.25 1018.44 1018.60 1018.68 1018.77 1018.91 1018.99 1019.09 1019.13 1019.16 1019.26 1019.40 1019.56 1019.64 1019.71 1019.85 1019.94 1020.05 1020.15 1020.22 1020.27 1020.19 1019.76 1019.12 1019.12 1019.03 1019.79 1020.91 1020.84 1020.71 1020.71 1020.63 1020.53 1020.47
1014.84 1015.33 1016.09 1016.72 1017.45 1017.79 1017.97 1018.19 1018.35 1018.46 1018.73 1018.79 1018.85 1018.89 1019.02 1019.10 1019.23 1019.35 1019.46 1019.58 1019.69 1019.83 1019.87 1020.00 1020.10 1020.17 1020.25 1020.30 1020.39 1020.43 1020.31 1019.79 1018.98 1019.16 1018.94 1019.88 1021.12 1020.97 1020.88 1020.81 1020.75 1020.78 1020.73
1015.09 1015.39 1015.85 1016.46 1016.81 1017.20 1017.73 1018.40 1018.59 1018.74 1018.81 1018.92 1018.97 1019.07 1019.12 1019.24 1019.31 1019.51 1019.75 1019.85 1019.95 1020.03 1020.21 1020.31 1020.39 1020.48 1020.50 1020.48 1020.59 1020.59 1020.35 1019.80 1019.08 1019.04 1019.84 1020.84 1021.26 1021.20 1021.13 1021.07 1021.10 1021.13 1021.10
1015.46 1015.65 1015.98 1016.31 1017.09 1017.19 1017.36 1018.29 1018.67 1018.85 1018.93 1018.97 1018.97 1019.09 1019.15 1018.55 1018.72 1019.18 1019.57 1020.00 1020.28 1020.41 1020.53 1020.69 1020.71 1020.66 1020.53 1020.63 1020.79 1020.58 1020.12 1019.51 1019.16 1019.14 1020.14 1021.46 1021.43 1021.42 1021.45 1021.45 1021.45 1021.49 1021.48
1015.43 1015.78 1015.88 1016.13 1016.83 1017.18 1017.01 1017.89 1018.11 1018.45 1018.57 1018.84 1018.53 1018.61 1018.37 1018.59 1018.75 1018.53 1019.55 1020.18 1020.39 1020.54 1020.72 1020.84 1020.76 1020.54 1020.15 1019.06 1019.67 1019.74 1019.15 1019.26 1019.25 1019.43 1020.82 1021.60 1021.57 1021.63 1021.66 1021.63 1021.67 1021.73 1021.75
1015.33 1015.81 1016.05 1016.30 1016.75 1016.58 1016.98 1017.33 1017.41 1017.74 1018.14 1018.62 1018.90 1018.95 1018.90 1018.91 1018.82 1018.69 1019.41 1019.70 1020.03 1020.49 1020.01 1020.24 1020.33 1019.32 1019.61 1019.14 1019.18 1019.31 1019.40 1019.18 1019.23 1019.50 1021.20 1021.62 1021.64 1021.65 1021.73 1021.76 1021.83 1021.87 1021.93
1015.22 1015.75 1016.15 1016.54 1017.10 1017.00 1017.31 1017.25 1017.41 1017.61 1017.87 1017.88 1018.23 1018.82 1019.05 1018.83 1018.91 1018.72 1019.11 1019.21 1019.61 1019.36 1019.83 1019.80 1019.68 1019.90 1019.82 1019.91 1019.64 1019.39 1019.31 1019.27 1019.55 1019.51 1020.89 1021.44 1021.63 1021.72 1021.79 1021.80 1021.87 1022.03 1022.10
1015.24 1015.76 1016.21 1016.85 1017.39 1017.53 1017.85 1017.56 1017.73 1017.56 1017.49 1017.96 1018.32 1018.87 1018.32 1018.63 1019.15 1018.95 1019.21 1019.15 1019.34 1019.70 1019.77 1019.87 1019.97 1019.88 1019.95 1019.58 1019.45 1019.61 1019.29 1019.53 1019.57 1019.62 1019.77 1021.18 1021.54 1021.69 1021.77 1021.83 1021.89 1021.97 1022.02
1015.28 1015.81 1016.32 1016.97 1017.41 1017.61 1017.59 1017.94 1017.77 1017.67 1017.94 1017.94 1018.05 1018.57 1018.98 1018.79 1019.23 1019.37 1019.39 1019.31 1019.53 1019.58 1019.69 1019.80 1019.93 1019.83 1019.61 1019.33 1019.38 1019.51 1019.59 1019.29 1019.61 1019.87 1019.62 1020.29 1021.19 1021.56 1021.67 1021.73 1021.83 1021.86 1021.85
1015.13 1015.69 1016.33 1016.89 1017.15 1017.57 1017.73 1017.83 1017.63 1017.62 1017.49 1017.95 1018.19 1018.91 1019.15 1019.19 1019.46 1019.37 1019.16 1019.17 1019.43 1019.89 1020.05 1020.19 1020.19 1019.90 1019.51 1019.25 1019.51 1019.36 1019.28 1019.49 1019.36 1019.80 1019.81 1019.77 1020.33 1020.91 1021.24 1021.48 1021.55 1021.59 1021.65
1014.93 1015.67 1016.19 1016.42 1016.99 1017.32 1017.61 1017.75 1017.37 1017.53 1017.53 1017.83 1018.17 1018.65 1019.06 1019.30 1019.44 1019.35 1019.11 1019.13 1019.51 1019.65 1019.51 1019.47 1019.52 1019.57 1019.57 1019.49 1019.54 1019.28 1019.16 1019.31 1019.53 1019.73 1019.66 1019.70 1019.50 1019.44 1020.48 1020.77 1021.16 1021.36 1021.46
1014.91 1015.75 1016.15 1016.57 1016.89 1017.27 1017.56 1017.42 1017.55 1017.91 1017.54 1017.80 1018.01 1018.23 1019.00 1019.02 1019.30 1019.04 1018.87 1019.24 1019.86 1019.28 1019.27 1019.38 1019.62 1019.80 1019.67 1019.53 1019.16 1019.09 1019.08 1019.01 1019.11 1018.89 1019.51 1019.60 1019.54 1019.60 1019.29 1020.35 1020.63 1020.96 1021.15
1014.85 1015.59 1016.18 1016.56 1016.86 1017.37 1017.32 1017.59 1017.24 1017.40 1017.50 1017.70 1017.81 1017.80 1018.72 1018.79 1019.15 1019.17 1019.05 1019.47 1019.45 1019.11 1019.34 1019.53 1019.87 1019.85 1019.75 1019.55 1018.92 1018.57 1018.79 1018.67 1018.65 1018.77 1018.87 1018.90 1018.80 1019.23 1019.27 1019.45 1019.57 1019.41 1020.34
1014.65 1015.35 1015.92 1016.42 1016.95 1017.23 1017.35 1017.45 1017.13 1016.98 1017.28 1017.51 1017.58 1018.27 1018.65 1018.66 1018.99 1019.33 1018.97 1019.47 1019.44 1019.33 1019.45 1019.99 1020.03 1020.16 1019.61 1019.76 1019.37 1018.35 1018.30 1018.38 1018.47 1018.15 1018.12 1018.34 1018.44 1018.61 1018.85 1019.16 1019.41 1019.12 1019.07
1014.31 1015.10 1015.75 1016.21 1016.87 1017.01 1017.13 1017.21 1017.07 1016.77 1017.04 1017.09 1017.49 1018.13 1018.30 1018.60 1018.97 1019.10 1019.06 1019.21 1019.30 1019.29 1019.98 1020.16 1020.24 1019.67 1019.60 1019.91 1019.29 1018.89 1017.89 1017.83 1017.69 1017.94 1018.19 1018.35 1018.41 1018.37 1018.37 1018.52 1018.80 1019.08 1019.13
1013.73 1014.64 1015.43 1015.99 1016.51 1016.89 1016.85 1017.23 1017.51 1017.30 1017.23 1017.53 1017.77 1017.86 1018.26 1018.64 1018.89 1019.03 1019.25 1019.03 1019.48 1019.32 1019.39 1020.07 1020.19 1020.17 1019.35 1019.89 1020.16 1019.72 1018.35 1017.90 1018.04 1017.93 1018.30 1018.36 1018.76 1018.49 1018.32 1018.17 1018.36 1018.59 1018.76
1013.23 1014.01 1014.87 1015.77 1016.18 1016.71 1016.93 1016.87 1017.03 1016.95 1016.76 1016.91 1017.30 1017.56 1017.98 1018.45 1018.65 1018.89 1019.21 1019.44 1019.66 1019.23 1019.44 1019.85 1019.95 1020.35 1020.47 1019.55 1019.95 1020.03 1020.30 1020.03 1018.95 1017.85 1017.57 1018.10 1018.25 1018.32 1018.51 1018.15 1018.13 1018.29 1018.57
1012.63 1013.35 1014.20 1015.25 1015.89 1016.22 1016.71 1016.63 1017.07 1016.85 1016.70 1017.04 1017.15 1017.75 1018.03 1018.31 1018.62 1018.57 1018.98 1019.29 1019.48 1019.49 1019.82 1020.04 1020.31 1020.54 1020.26 1020.13 1019.63 1019.58 1020.01 1019.73 1019.77 1019.10 1017.86 1017.70 1017.59 1017.84 1018.03 1017.99 1018.06 1017.81 1017.95
1012.01 1012.73 1013.51 1014.51 1015.43 1016.03 1016.51 1016.78 1016.82 1016.80 1016.65 1016.64 1017.10 1017.46 1017.55 1017.63 1017.95 1018.57 1018.79 1019.19 1019.38 1019.48 1019.92 1019.97 1020.19 1020.50 1020.61 1020.44 1020.08 1020.06 1019.57 1019.26 1018.99 1018.97 1018.49 1018.09 1017.97 1017.57 1017.79 1017.78 1017.61 1017.57 1017.50
Wind_Speed
8 10 7 10 12 11 12 12 12 11 11 12 12 11 11 10 11 11 13 13 13 14 15 15 16 15 15 14 15 14 15 15 16 16 15 15 15 14 12 7 10 15 12
12 12 9 11 11 12 12 12 12 11 10 9 12 11 12 11 11 11 12 13 13 13 14 15 16 13 14 15 15 15 14 15 14 12 15 15 16 13 13 15 16 14 13
12 13 11 8 11 10 12 11 11 10 9 8 11 11 12 11 12 12 12 12 13 13 14 15 15 14 15 14 16 16 15 15 14 6 4 12 15 14 15 15 14 13 12
11 12 12 8 11 11 12 11 10 9 10 10 11 12 12 12 11 12 12 12 12 12 14 15 14 15 15 13 14 14 13 13 8 3 7 11 13 13 12 12 14 12 11
11 10 13 10 10 10 12 10 10 11 11 12 12 10 11 11 11 12 12 12 12 11 13 15 13 13 13 12 11 11 11 9 2 6 10 13 9 12 13 12 12 13 14
11 13 11 12 12 10 10 10 10 11 12 12 12 13 11 10 11 11 12 13 13 12 13 15 12 13 11 11 10 10 9 3 6 9 7 11 13 10 11 11 11 11 11
11 13 12 9 12 12 11 11 11 11 11 10 11 10 10 9 10 11 11 12 13 12 13 13 13 12 10 13 13 12 8 4 8 8 8 12 12 9 10 11 10 10 9
12 12 12 11 12 12 12 11 11 11 12 11 12 11 10 10 10 10 10 11 12 12 12 12 12 13 14 13 12 10 6 6 9 8 9 12 8 9 10 9 8 8 7
12 10 12 12 13 11 10 10 10 9 10 11 10 9 9 9 9 8 9 10 10 11 11 11 12 12 12 10 10 10 7 5 9 6 9 10 8 10 10 10 9 9 6
10 11 10 9 9 10 12 9 9 9 8 8 8 8 7 7 7 7 7 9 9 10 10 10 10 11 11 11 9 7 4 8 10 7 10 8 10 10 10 11 13 13 12
8 10 10 11 8 7 9 10 9 7 7 7 6 6 6 5 8 11 11 10 9 8 9 9 9 9 9 10 7 5 11 6 7 6 8 8 9 10 11 11 11 12 12
12 11 10 10 10 8 7 8 6 6 4 5 5 6 4 5 5 9 10 10 9 9 9 9 8 6 13 7 8 12 6 6 6 7 8 8 9 10 10 11 13 13 13
12 9 9 9 8 9 7 6 5 5 6 6 5 5 5 6 6 5 8 8 8 10 8 9 8 5 5 5 5 7 5 6 5 6 10 8 8 8 9 10 11 11 11
13 11 10 9 7 6 6 5 5 5 4 4 6 6 6 6 4 6 5 6 7 5 6 4 4 5 6 6 6 6 7 6 5 4 10 8 5 6 6 8 9 9 10
12 11 10 9 6 5 5 5 2 3 4 6 6 4 4 6 5 7 6 7 6 6 6 4 5 3 4 5 5 5 7 6 6 4 5 9 4 3 3 5 5 6 7
12 12 11 9 8 7 4 4 4 3 5 3 5 7 4 5 4 7 7 7 7 6 6 5 4 4 2 2 4 4 4 2 5 3 4 8 10 5 3 3 2 3 4
11 12 12 10 9 7 6 6 3 4 5 5 5 6 6 4 5 6 6 7 6 6 5 5 4 3 1 1 3 2 2 3 3 3 3 3 10 12 8 5 4 3 2
12 12 12 10 10 8 7 5 4 5 4 5 5 6 6 5 5 4 6 6 6 6 5 4 3 1 1 2 2 2 2 2 2 2 3 3 2 3 12 11 8 7 6
13 12 11 10 10 9 7 6 5 6 4 4 5 5 6 6 7 4 5 6 6 4 4 3 2 1 4 1 4 2 2 3 2 2 3 4 4 5 4 14 12 10 10
14 14 11 10 9 7 6 4 5 6 5 5 4 5 6 6 7 5 5 6 5 4 5 3 2 2 4 3 6 3 4 4 3 3 4 5 4 5 6 5 4 7 16
14 14 13 11 11 8 7 5 5 7 6 5 5 5 6 6 7 5 6 6 4 3 2 4 4 3 3 1 5 3 2 4 3 4 2 3 4 5 4 5 5 5 4
15 14 13 13 12 10 7 5 4 6 7 5 4 5 5 6 6 6 3 6 5 5 3 3 2 2 2 1 5 4 2 4 1 5 4 3 4 4 5 5 5 6 6
17 16 14 14 13 11 9 6 6 3 5 6 6 7 7 6 6 4 5 3 4 4 5 4 4 3 2 1 3 5 4 6 8 3 2 4 5 5 5 4 4 5 6
17 17 16 14 14 12 11 9 7 8 8 7 6 5 6 5 5 6 5 5 4 4 3 4 4 4 4 4 1 2 4 5 5 4 1 2 2 2 4 4 4 4 4
17 17 17 15 14 13 13 10 9 9 7 7 6 7 5 6 5 7 6 5 4 4 4 3 3 3 3 5 3 2 2 4 2 5 5 5 4 3 3 2 4 3 2
18 17 17 17 15 15 13 14 12 10 8 8 7 7 6 6 7 6 6 5 4 3 4 5 4 5 5 4 4 4 5 4 4 4 5 6 6 3 3 1 1 3 2
Wind_Direction
147 135 162 160 144 134 123 117 106 99 92 95 98 100 105 108 100 96 96 92 88 87 91 88 88 87 94 90 88 96 98 97 91 91 89 86 85 84 75 85 133 91 79
137 134 145 141 137 141 136 121 123 113 106 104 105 108 105 111 110 100 94 95 94 93 89 98 96 96 88 79 80 82 88 82 79 94 114 96 86 88 76 65 54 87 87
127 119 144 131 121 136 129 118 117 119 118 112 116 108 107 104 102 104 102 98 101 97 95 94 95 89 85 79 78 75 78 77 73 49 308 76 76 65 65 73 78 77 80
125 134 130 129 120 120 127 122 127 130 123 117 103 107 108 107 105 103 99 103 101 97 99 95 90 92 87 83 77 76 77 75 77 295 66 88 88 67 68 75 71 65 91
127 123 110 125 120 123 131 125 117 120 126 112 105 102 107 100 97 101 100 92 92 96 93 96 95 93 97 93 80 78 78 78 107 99 59 36 59 67 58 47 84 73 54
128 125 125 126 119 110 108 116 123 125 117 111 120 120 115 109 107 103 102 94 92 85 92 92 92 88 95 86 73 84 77 47 279 68 100 101 63 69 65 61 63 63 62
135 112 129 125 112 112 114 115 114 115 114 118 108 108 108 110 111 105 96 104 99 96 97 98 92 88 95 88 92 95 85 32 83 74 80 64 67 64 70 60 59 63 64
125 129 130 119 118 111 113 115 119 120 119 119 115 109 109 104 100 103 100 95 102 104 105 102 96 85 90 90 93 82 62 335 90 80 76 76 63 65 66 68 68 63 64
128 134 136 132 123 117 121 119 116 115 119 119 116 118 119 117 117 117 117 113 110 109 113 106 95 91 82 79 86 83 70 339 74 62 89 78 67 62 57 56 57 53 47
142 137 124 136 123 136 144 122 115 118 113 120 126 129 127 127 135 135 134 127 123 118 109 104 101 90 80 75 91 93 175 231 69 102 73 67 60 61 62 65 65 61 58
146 138 143 134 144 133 128 119 139 136 136 140 138 124 145 147 159 172 96 132 129 126 117 110 105 106 119 107 106 205 237 56 78 65 73 77 69 68 66 62 63 59 56
156 151 151 142 136 151 143 151 98 126 153 132 133 132 152 91 90 98 115 133 135 135 125 120 122 169 215 134 145 200 74 88 69 87 73 77 72 68 69 66 61 56 53
152 153 150 146 159 161 120 149 161 151 148 145 136 123 120 107 163 143 136 149 144 176 159 170 170 173 64 65 69 66 90 78 72 81 88 79 71 72 72 72 72 68 62
156 157 160 144 154 131 144 182 131 150 134 168 120 141 139 148 115 132 118 127 147 163 116 152 138 94 101 84 55 63 79 55 54 60 104 94 85 80 79 84 79 76 72
158 156 155 150 163 158 189 126 112 132 151 103 150 130 123 105 104 111 123 137 133 142 151 161 127 110 114 107 75 45 50 55 55 41 97 130 132 120 114 103 101 93 84
162 162 154 165 165 172 178 165 160 147 126 152 142 123 123 119 115 119 138 137 139 148 151 151 143 140 80 44 82 45 5 41 58 354 34 139 159 178 186 160 140 108 99
169 164 155 165 168 166 169 178 177 165 126 136 115 140 134 151 131 135 120 140 138 125 140 133 179 144 159 148 94 74 311 49 6 352 309 342 146 179 188 204 210 206 201
170 165 163 168 166 168 157 177 173 133 135 131 135 141 157 147 151 179 161 140 135 164 164 152 163 149 73 58 38 333 1 309 7 291 275 310 310 315 180 190 207 226 236
165 168 171 172 170 167 163 173 175 133 175 127 146 149 151 152 148 187 163 130 189 165 162 164 154 323 111 277 227 218 264 294 281 279 292 278 274 271 312 169 189 216 233
166 171 177 179 162 171 162 180 171 156 154 145 145 126 155 145 151 189 136 146 208 167 149 164 350 130 324 347 315 350 293 288 283 283 273 256 257 282 286 297 237 223 209
176 177 178 180 163 172 175 164 193 174 160 154 148 139 149 151 157 176 157 168 204 191 60 174 184 196 225 326 277 279 244 230 282 302 297 290 294 265 294 284 278 286 211
180 185 181 180 175 184 175 182 257 174 166 152 137 130 143 160 152 174 172 181 199 136 170 163 212 212 240 29 325 291 345 155 197 52 8 351 341 317 300 269 280 273 278
187 189 192 189 181 196 183 171 168 166 157 176 161 159 147 154 166 195 185 221 178 256 179 195 204 263 274 141 334 323 311 22 328 115 73 18 353 336 335 306 279 278 269
193 189 193 194 187 192 193 180 179 192 180 177 179 150 156 176 189 185 191 185 210 241 278 204 212 292 282 295 179 255 321 344 336 328 123 97 286 327 13 330 341 297 284
194 193 193 190 195 200 191 207 183 209 188 179 176 151 221 165 218 202 186 192 189 228 182 248 201 240 243 292 297 288 264 267 219 305 323 0 4 43 30 356 355 349 320
194 195 195 187 196 199 201 202 204 196 213 178 186 175 194 198 184 194 185 208 207 198 207 212 216 227 267 291 298 284 283 308 324 311 316 327 325 14 359 341 355 357 350